{"data":{"norad_id":57340,"intl_designator":"2023-099N","name":"STARLINK-6321","alt_names":[],"object_type":"PAYLOAD","status":"ACTIVE","operator":null,"country":"US","launch_date":"2023-07-16","launch_site_code":"AFETR","launch_vehicle":null,"mission":null,"orbit_class":"UNKNOWN","rcs_meters":null,"size_class":null,"mass_kg":null,"dimensions":null,"purposes":["comms"],"wikipedia_slug":null,"has_3d_model":false,"image_url":null,"decayed_at":null,"tle_current":{"epoch":"2026-05-25T03:20:32.941824Z","epoch_age_seconds":73382,"freshness":"FRESH","line1":"1 57340U 23099N   26145.13927016  .00000088  00000+0  12716-4 0  9995","line2":"2 57340  43.0007 181.0572 0000963 281.6894  78.3849 15.27574762157766","mean_motion":15.27574762,"eccentricity":9.63e-5,"inclination_deg":43.0007,"raan_deg":181.0572,"arg_perigee_deg":281.6894,"mean_anomaly_deg":78.3849,"bstar":1.2716e-5,"rev_number":15776,"period_min":94.267071951009,"perigee_km":482.40404680937,"apogee_km":483.7255142723,"semimajor_km":6861.2017805408,"source":"CELESTRAK","updated_at":"2026-05-25T13:38:18.287833Z"}}}